Change the Weather History Date:

Wednesday, January 16, 2013

  Actual Average (KGAF) Record (KGAF)
Temperature  
Mean Temperature 11 °F -  
Max Temperature 26 °F 14 °F 42 °F (1961)
Min Temperature -4 °F -3 °F -35 °F (1977)
Degree Days  
Heating Degree Days 54    
Moisture  
Dew Point -2 °F    
Average Humidity 77    
Maximum Humidity 100    
Minimum Humidity 51    
Precipitation  
Precipitation 0.00 in - - ()
Sea Level Pressure  
Sea Level Pressure 30.00 in    
Wind  
Wind Speed 16 mph (North)    
Max Wind Speed 25 mph    
Max Gust Speed 33 mph    
Visibility 10 miles    
Events Snow    
Averages and records for this station are not official NWS values.
T = Trace of Precipitation, MM = Missing Value Source: NWS Daily Summary

Daily Weather History Graph

Daily Weather History Graph

Search for Another Location

Airport or City:

Trip Planner

Search our weather history database for the weather conditions in past years. The results will help you decide how hot, cold, wet, or windy it might be!

Date:

Astronomy

Jan. 16, 2013 Rise Set
Actual Time 8:19 AM CST 5:04 PM CST
Civil Twilight 7:43 AM CST 5:40 PM CST
Nautical Twilight 7:04 AM CST 6:19 PM CST
Astronomical Twilight 6:26 AM CST 6:57 PM CST
Moon 10:23 AM CST (1/16) 11:33 PM CST (1/16)
Length of Visible Light 9h 56m
Length of Day
8h 45m
Waxing Crescent, 28% of the Moon is Illuminated
Jan 16
Waxing Crescent
Jan 18
First Quarter
Jan 26
Full
Feb 3
Last Quarter
Feb 10
New

Hourly Weather History & Observations

Time (CST) Temp. Windchill Dew Point Humidity Pressure Visibility Wind Dir Wind Speed Gust Speed Precip Events Conditions
12:15 AM 26.6 °F 12.0 °F 26.6 °F 100% 29.54 in 10.0 mi NNW 23.0 mph 28.8 mph N/A   Overcast
12:35 AM 24.8 °F 10.3 °F 24.8 °F 100% 29.55 in 10.0 mi NNW 20.7 mph 26.5 mph N/A Snow Light Snow
12:55 AM 24.8 °F 11.1 °F 24.8 °F 100% 29.57 in 10.0 mi NNW 18.4 mph 28.8 mph N/A   Overcast
1:15 AM 23.0 °F 6.6 °F 21.2 °F 93% 29.59 in 10.0 mi NNW 25.3 mph 29.9 mph N/A   Overcast
1:35 AM 19.4 °F 1.8 °F 15.8 °F 86% 29.61 in 10.0 mi NNW 25.3 mph 33.4 mph N/A   Overcast
1:55 AM 17.6 °F 1.7 °F 14.0 °F 86% 29.63 in 10.0 mi NNW 18.4 mph 29.9 mph N/A   Overcast
2:15 AM 15.8 °F -0.6 °F 14.0 °F 93% 29.64 in 10.0 mi NNW 18.4 mph 27.6 mph N/A   Scattered Clouds
2:35 AM 15.8 °F -0.6 °F 12.2 °F 86% 29.67 in 10.0 mi NNW 18.4 mph 24.2 mph N/A   Scattered Clouds
2:55 AM 14.0 °F -2.0 °F 12.2 °F 93% 29.68 in 10.0 mi NNW 16.1 mph 24.2 mph N/A   Mostly Cloudy
3:15 AM 14.0 °F -1.4 °F 12.2 °F 93% 29.69 in 10.0 mi NNW 15.0 mph 19.6 mph N/A   Overcast
3:35 AM 14.0 °F -0.2 °F 12.2 °F 93% 29.70 in 10.0 mi NNW 12.7 mph 19.6 mph N/A   Overcast
3:55 AM 14.0 °F -2.5 °F 12.2 °F 93% 29.71 in 10.0 mi North 17.3 mph 23.0 mph N/A Snow Light Snow
4:15 AM 14.0 °F -0.8 °F 10.4 °F 86% 29.71 in 10.0 mi North 13.8 mph 24.2 mph N/A   Overcast
4:35 AM 14.0 °F 0.5 °F 10.4 °F 86% 29.73 in 10.0 mi North 11.5 mph - N/A   Overcast
4:55 AM 14.0 °F -1.4 °F 10.4 °F 86% 29.74 in 10.0 mi North 15.0 mph 20.7 mph N/A Snow Light Snow
5:15 AM 14.0 °F -3.4 °F 10.4 °F 86% 29.74 in 10.0 mi NNE 19.6 mph - N/A Snow Light Snow
5:35 AM 10.4 °F -8.2 °F 8.6 °F 92% 29.75 in 10.0 mi North 19.6 mph - N/A   Overcast
6:35 AM 6.8 °F -14.7 °F 3.2 °F 85% 29.78 in 10.0 mi North 24.2 mph 29.9 mph N/A   Mostly Cloudy
6:55 AM 6.8 °F -12.4 °F -0.4 °F 72% 29.80 in 10.0 mi North 18.4 mph - N/A   Mostly Cloudy
7:15 AM 6.8 °F -11.8 °F 1.4 °F 79% 29.82 in 10.0 mi North 17.3 mph 26.5 mph N/A   Overcast
7:35 AM 5.0 °F -14.2 °F -0.4 °F 78% 29.84 in 10.0 mi North 17.3 mph - N/A   Overcast
7:55 AM 5.0 °F -12.3 °F -0.4 °F 78% 29.86 in 10.0 mi North 13.8 mph - N/A   Overcast
8:15 AM 5.0 °F -15.2 °F -0.4 °F 78% 29.87 in 10.0 mi North 19.6 mph - N/A   Overcast
8:35 AM 5.0 °F -16.7 °F -2.2 °F 72% 29.90 in 10.0 mi North 23.0 mph - N/A   Overcast
8:55 AM 3.2 °F -17.6 °F -0.4 °F 85% 29.91 in 10.0 mi North 19.6 mph - N/A   Overcast
9:15 AM 1.4 °F -19.9 °F -0.4 °F 92% 29.93 in 10.0 mi North 19.6 mph 28.8 mph N/A   Overcast
9:35 AM 1.4 °F -20.5 °F -4.0 °F 78% 29.95 in 10.0 mi North 20.7 mph 28.8 mph N/A   Overcast
9:55 AM -0.4 °F -22.8 °F -4.0 °F 85% 29.96 in 10.0 mi North 20.7 mph - N/A   Overcast
10:15 AM -0.4 °F -23.3 °F -4.0 °F 85% 29.97 in 10.0 mi North 21.9 mph 28.8 mph N/A   Overcast
10:35 AM -0.4 °F -21.2 °F -4.0 °F 85% 30.00 in 10.0 mi North 17.3 mph - N/A   Overcast
10:55 AM -0.4 °F -19.2 °F -4.0 °F 85% 30.02 in 10.0 mi North 13.8 mph 19.6 mph N/A   Mostly Cloudy
11:15 AM -0.4 °F -19.2 °F -4.0 °F 85% 30.04 in 10.0 mi North 13.8 mph 21.9 mph N/A   Overcast
11:35 AM -0.4 °F -22.8 °F -5.8 °F 78% 30.05 in 10.0 mi North 20.7 mph - N/A   Overcast
11:55 AM -0.4 °F -19.9 °F -5.8 °F 78% 30.06 in 10.0 mi NNW 15.0 mph 21.9 mph N/A   Mostly Cloudy
12:15 PM 1.4 °F -18.8 °F -7.6 °F 66% 30.07 in 10.0 mi North 17.3 mph - N/A   Overcast
12:35 PM -0.4 °F -19.9 °F -7.6 °F 72% 30.08 in 10.0 mi North 15.0 mph - N/A   Overcast
1:15 PM -0.4 °F -19.9 °F -7.6 °F 72% 30.09 in 10.0 mi North 15.0 mph - N/A   Overcast
1:35 PM -0.4 °F -19.2 °F -7.6 °F 72% 30.10 in 10.0 mi North 13.8 mph - N/A   Overcast
1:55 PM -0.4 °F -20.5 °F -9.4 °F 66% 30.11 in 10.0 mi North 16.1 mph - N/A   Overcast
2:15 PM -0.4 °F -19.2 °F -11.2 °F 60% 30.12 in 10.0 mi North 13.8 mph - N/A   Overcast
2:35 PM -0.4 °F -19.2 °F -13.0 °F 55% 30.13 in 10.0 mi North 13.8 mph 19.6 mph N/A   Overcast
2:55 PM -0.4 °F -19.2 °F -13.0 °F 55% 30.16 in 10.0 mi North 13.8 mph - N/A   Scattered Clouds
3:35 PM -0.4 °F -19.2 °F -13.0 °F 55% 30.17 in 10.0 mi North 13.8 mph - N/A   Overcast
3:55 PM -0.4 °F -17.6 °F -14.8 °F 51% 30.19 in 10.0 mi North 11.5 mph - N/A   Overcast
4:15 PM -2.2 °F -18.9 °F -13.0 °F 60% 30.21 in 10.0 mi North 10.4 mph 17.3 mph N/A   Overcast
4:35 PM -2.2 °F -18.9 °F -13.0 °F 60% 30.21 in 10.0 mi North 10.4 mph - N/A   Overcast
4:55 PM -4.0 °F -20.2 °F -11.2 °F 71% 30.22 in 10.0 mi NNE 9.2 mph - N/A   Overcast
5:15 PM -4.0 °F -19.0 °F -13.0 °F 65% 30.21 in 10.0 mi NE 8.1 mph - N/A   Overcast
5:35 PM -4.0 °F -16.3 °F -13.0 °F 65% 30.21 in 10.0 mi NE 5.8 mph - N/A   Overcast
5:55 PM -4.0 °F -14.6 °F -13.0 °F 65% 30.22 in 10.0 mi NNE 4.6 mph - N/A   Overcast
6:15 PM -4.0 °F -12.4 °F -13.0 °F 65% 30.24 in 10.0 mi NNE 3.5 mph - N/A   Overcast
6:35 PM -4.0 °F -12.4 °F -13.0 °F 65% 30.23 in 10.0 mi NE 3.5 mph - N/A   Mostly Cloudy
6:55 PM -4.0 °F -12.4 °F -13.0 °F 65% 30.24 in 10.0 mi NNE 3.5 mph - N/A   Overcast
7:15 PM -4.0 °F -14.6 °F -13.0 °F 65% 30.24 in 10.0 mi NE 4.6 mph - N/A Snow Light Snow
7:35 PM -4.0 °F - -13.0 °F 65% 30.25 in 10.0 mi Calm Calm - N/A   Overcast
7:55 PM -4.0 °F -12.4 °F -13.0 °F 65% 30.26 in 10.0 mi ENE 3.5 mph - N/A Snow Light Snow
8:15 PM -4.0 °F - -13.0 °F 65% 30.25 in 5.0 mi Calm Calm - N/A Snow Light Snow
8:55 PM -4.0 °F -12.4 °F -11.2 °F 71% 30.26 in - SSW 3.5 mph - N/A Snow Heavy Snow
9:15 PM -4.0 °F - -11.2 °F 71% 30.27 in - Calm Calm - N/A   Overcast
9:35 PM -4.0 °F -16.3 °F -9.4 °F 78% 30.27 in - South 5.8 mph - N/A Snow Heavy Snow
9:55 PM -2.2 °F -14.2 °F -9.4 °F 71% 30.26 in - South 5.8 mph - N/A   Overcast
10:15 PM -2.2 °F -12.5 °F -7.6 °F 78% 30.26 in - South 4.6 mph - N/A Snow Heavy Snow
10:35 PM -2.2 °F -14.2 °F -7.6 °F 78% 30.26 in - South 5.8 mph - N/A Snow Heavy Snow
10:55 PM -2.2 °F -14.2 °F -7.6 °F 78% 30.24 in - South 5.8 mph - N/A   Overcast
11:15 PM -2.2 °F -12.5 °F -7.6 °F 78% 30.23 in - SSE 4.6 mph - N/A   Overcast
11:35 PM -2.2 °F -12.5 °F -7.6 °F 78% 30.23 in - SSE 4.6 mph - N/A   Overcast
11:55 PM -2.2 °F -16.8 °F -7.6 °F 78% 30.22 in - SE 8.1 mph - N/A   Overcast